"Pseudo-MPEC" for ZTB6F63

Created 2018 Oct 13 14:18:23 UT using Find_Orb

Click here for an explanation of pseudo-MPECs

 
 Astrometry: 
     ZTB6F63  C2018 10 10.31550 03 01 14.93 +23 36 30.8          20.5 GVNEOCPG96
     ZTB6F63  C2018 10 10.32069 03 01 12.26 +23 36 28.3          20.8 GVNEOCPG96
     ZTB6F63  C2018 10 10.32585 03 01 09.66 +23 36 25.1          20.5 GVNEOCPG96
     ZTB6F63  C2018 10 10.33102 03 01 07.05 +23 36 22.1          20.4 GVNEOCPG96
     ZTB6F63  C2018 10 10.44589 03 00 09.31 +23 35 00.5          20.6 GVNEOCPI52
     ZTB6F63  C2018 10 10.44978 03 00 07.39 +23 34 57.3          21.0 GVNEOCPI52
     ZTB6F63  C2018 10 10.45103 03 00 06.80 +23 34 56.2          20.5 GVNEOCPI52
     ZTB6F63 KC2018 10 11!ZAstrometryZw!\_pt`Ft@On5qqAaa^DHpfhXbMB-SDC8nxnlrCL01
     ZTB6F63 KC2018 10 11`.nX)V?AA8AdJuLwQn_*l(wauUlnS-V!e_1*Z2r-jw(N4dgWJ;r$L01
     ZTB6F63 IC2018 10 11k'K94XI6CbG'B3-otwlWmtkXb/i2%;6pv;/1sX!tDj+1d]#APx2bL01
     ZTB6F63 KC2018 10 11:v+!pKw24b+F=H@?F\/QnthKo?#\[=XgC3g:8LLZ1rwY8qYNeBTSK88
     ZTB6F63 KC2018 10 11HJLK`.Cuf+ZC5`IIrAG+3e;xP8S]`W01=T5mutcUqx@HhaIsNA^iK88
     ZTB6F63 KC2018 10 11?h'LLA)6STai!6cdFredacted;Z=T?*;h#C/bg(*nUV68FCm^\!OK88
     ZTB6F63  C2018 10 11@u4]7iA^DD\-`I5kqD!a7H^*C@XLtxG/[8R7Yj[WLBru1=G0r.GtH01
     ZTB6F63  C2018 10 11m+wjKUScchU;Y4+nE26qa!h.1a=X[0=XTCgpCt3,h!uV`iUrYMZ[H01
     ZTB6F63  C2018 10 11;hl_%8Ivp#?8sb2,HOtI$P0n`('3(_/+DhwndmK*_EFr+I!Zr%d\H01
     ZTB6F63  C2018 10 11MJ?U7[q@tZ%?gAI8%/7K'wt\1Gau)5D78oW2*\+,^rM.eR=VXx-,H01
     ZTB6F63 KC2018 10 13Z-u:kd:m.Q+XcrbE#H^PPF;(=K:oY!Owseeb$kSi_!Qk`/TXKS\t104
     ZTB6F63 KC2018 10 13k2J7',T,!IeVR=W.LnMQ_g;mFfF\:8H))K85aU\nr%ZL%(SVAAKh104
     ZTB6F63 KC2018 10 13A85W,'YKdbvQ`82287G?OLLKmx9hj(yvcXGNtwPLSnfkZy^qF#gO104
     ZTB6F63 KC2018 10 13):Ql:?\B?X,wZZLWdR13Vmq:?=q,m!GRlaKN^jajBA$nRBF=UdtI204
     ZTB6F63 HC2018 10 13\4BS`NaOHmuc$G/ek+`Iy8lyVG=*JSrl-Xua?$c2yM+#N:B@E(ix204
     ZTB6F63 HC2018 10 13u5wQ]n5aH-./f)p_-ZL`aWd5K`UJiyHd4yoKG*3o7u$W$OqNEOCP204

Station data:
(104) San Marcello Pistoiese  (N44.063037 E10.804200)  Italy. 0.40-m f/5
   reflector.
(204) Schiaparelli Observatory  (N45.867933 E8.770800)  Italy.  Observer L.
   Buzzi. 0.60-m f/4.64 Newtonian + CCD.
(G96) Mt. Lemmon Survey  (N32.442754 W110.788720)  US/Arizona.  Observers B.
   M. Africano, E. J. Christensen, D. C. Fuls, A. R. Gibbs, A. D. Grauer, J.
   A. Johnson, R. A. Kowalski, S. M. Larson, G. J. Leonard, R. L. Seaman, F.
   C. Shelly. 1.5-m reflector + 10K CCD.
(H01) Magdalena Ridge Observatory, Socorro  (N33.984833 W107.189333)  US/New
   Mexico.  Observers W. H. Ryan, E. V. Ryan. Measurer W. H. Ryan. 2.4-m
   f/8.9 reflector + CCD.
(I52) Steward Observatory, Mt. Lemmon Station  (N32.442547 W110.788920)
   US/Arizona.  Observers B. M. Africano, E. J. Christensen, D. C. Fuls, A.
   R. Gibbs, A. D. Grauer, J. A. Johnson, R. A. Kowalski, S. M. Larson, G. J.
   Leonard, R. L. Seaman, F. C. Shelly. 1.0-m reflector + CCD.
(K88) GINOP-KHK, Piszkéstető  (N47.917622 E19.893600)  Hungary.  Observer K.
   Sárneczky. 0.60-m Schmidt + CCD.
(L01) Višnjan Observatory, Tičan  (N45.290900 E13.749300)  Croatia.  Observer
   K. Korlević. 1.0-m f/2.9 reflector + CCD.

Orbital elements:  ZTB6F63
   Perihelion 2018 Aug 25.707756 +/- 0.0136 TT = 16:59:10 (JD 2458356.207756)
Epoch 2018 Oct 13.0 TT = JDT 2458404.5   Earth MOID: 0.0013   Ma: 0.0407
M  21.75543 +/- 0.06                (J2000 ecliptic)          AutoNEOCP
n   0.45049543 +/- 0.00113          Peri.  308.92982 +/- 0.009
a   1.68529443 +/- 0.00281          Node    11.32577 +/- 0.0022
e   0.4730985 +/- 0.000997          Incl.    2.74277 +/- 0.0046
P   2.19/799.11d           H 25.7   G  0.15   U  8.2  
q 0.88798410 +/- 0.000198    Q 2.48260476 +/- 0.00581
From 23 observations 2018 Oct. 10-13; mean residual 0".27
Residuals in arcseconds: 
181010 G96  .19+  .24-    181011 L01  .24-  .46-    181011 H01  .16+  .16+    
181010 G96  .39-  .20+    181011 L01  .06+  .13+    181013 104  .03-  .93-    
181010 G96  .19-  .03-    181011 K88  .15-  .37+    181013 104  .13+  .11-    
181010 G96  .05-  .01+    181011 K88  .22-  .31+    181013 104  .24+  .04+    
181010 I52  .13+  .17-    181011 K88  .10-  .68+    181013 204  .15-  .20+    
181010 I52  .10+  .15-    181011 H01  .09+  .10-    181013 204  .09-  .16+    
181010 I52  .46+  .21-    181011 H01  .10+  .02+    181013 204  .06-  .33+    
181011 L01  .31-  .29-    181011 H01  .34+  .11+    

Ephemerides (geocentric):
Date (UTC) HH   RA              Dec         delta   r     elong  mag " sig PA
---- -- -- --  -------------   -----------  ------ ------ -----  --- ---- ---
2018 10 13 14  02 42 35.019   +23 01 54.76  .07634 1.0667 153.8 21.4  .12  29
2018 10 13 15  02 42 24.249   +23 01 30.29  .07660 1.0670 153.8 21.4  .12  31
2018 10 13 16  02 42 13.544   +23 01 05.88  .07685 1.0673 153.9 21.4  .12  32
2018 10 13 17  02 42 02.904   +23 00 41.52  .07710 1.0675 154.0 21.4  .12  33
2018 10 13 18  02 41 52.327   +23 00 17.22  .07735 1.0678 154.1 21.4  .12  34
2018 10 13 19  02 41 41.814   +22 59 52.97  .07760 1.0680 154.2 21.4  .13  35
2018 10 13 20  02 41 31.364   +22 59 28.78  .07786 1.0683 154.2 21.4  .13  36
2018 10 13 21  02 41 20.976   +22 59 04.65  .07811 1.0686 154.3 21.4  .13  37
2018 10 13 22  02 41 10.649   +22 58 40.57  .07836 1.0688 154.4 21.4  .13  38
2018 10 13 23  02 41 00.383   +22 58 16.54  .07861 1.0691 154.5 21.4  .13  39
2018 10 14 00  02 40 50.178   +22 57 52.57  .07887 1.0693 154.5 21.4  .14  40
2018 10 14 01  02 40 40.033   +22 57 28.65  .07912 1.0696 154.6 21.4  .14  41
2018 10 14 02  02 40 29.947   +22 57 04.78  .07937 1.0699 154.7 21.5  .14  42
2018 10 14 03  02 40 19.919   +22 56 40.97  .07962 1.0701 154.8 21.5  .14  43
2018 10 14 04  02 40 09.950   +22 56 17.21  .07988 1.0704 154.8 21.5  .15  44
2018 10 14 05  02 40 00.039   +22 55 53.51  .08013 1.0707 154.9 21.5  .15  45
2018 10 14 06  02 39 50.185   +22 55 29.86  .08038 1.0709 155.0 21.5  .15  46
2018 10 14 07  02 39 40.387   +22 55 06.26  .08064 1.0712 155.1 21.5  .15  46
2018 10 14 08  02 39 30.646   +22 54 42.71  .08089 1.0714 155.1 21.5  .16  47
2018 10 14 09  02 39 20.960   +22 54 19.22  .08114 1.0717 155.2 21.5  .16  48
2018 10 14 10  02 39 11.330   +22 53 55.77  .08140 1.0720 155.3 21.5  .16  49
2018 10 14 11  02 39 01.754   +22 53 32.38  .08165 1.0722 155.4 21.5  .16  49
2018 10 14 12  02 38 52.233   +22 53 09.04  .08191 1.0725 155.4 21.5  .17  50
2018 10 14 13  02 38 42.765   +22 52 45.75  .08216 1.0728 155.5 21.5  .17  51
2018 10 14 14  02 38 33.350   +22 52 22.51  .08241 1.0730 155.6 21.5  .17  52
2018 10 14 15  02 38 23.988   +22 51 59.33  .08267 1.0733 155.6 21.5  .17  52
2018 10 14 16  02 38 14.679   +22 51 36.19  .08292 1.0735 155.7 21.5  .18  53
2018 10 14 17  02 38 05.421   +22 51 13.10  .08318 1.0738 155.8 21.5  .18  53
2018 10 14 18  02 37 56.215   +22 50 50.07  .08343 1.0741 155.9 21.5  .18  54
2018 10 14 19  02 37 47.059   +22 50 27.08  .08368 1.0743 155.9 21.5  .18  55
2018 10 14 20  02 37 37.955   +22 50 04.14  .08394 1.0746 156.0 21.5  .19  55
2018 10 14 21  02 37 28.900   +22 49 41.25  .08419 1.0749 156.1 21.5  .19  56
2018 10 14 22  02 37 19.895   +22 49 18.41  .08445 1.0751 156.2 21.6  .19  56
2018 10 14 23  02 37 10.939   +22 48 55.62  .08470 1.0754 156.2 21.6  .20  57
2018 10 15 00  02 37 02.032   +22 48 32.88  .08496 1.0756 156.3 21.6  .20  57
2018 10 15 01  02 36 53.174   +22 48 10.19  .08521 1.0759 156.4 21.6  .20  58
2018 10 15 02  02 36 44.363   +22 47 47.54  .08547 1.0762 156.4 21.6  .20  58
2018 10 15 03  02 36 35.600   +22 47 24.94  .08572 1.0764 156.5 21.6  .21  59
2018 10 15 04  02 36 26.884   +22 47 02.39  .08598 1.0767 156.6 21.6  .21  59
2018 10 15 05  02 36 18.215   +22 46 39.89  .08623 1.0770 156.6 21.6  .21  60
2018 10 15 06  02 36 09.592   +22 46 17.43  .08649 1.0772 156.7 21.6  .22  60
2018 10 15 07  02 36 01.016   +22 45 55.02  .08675 1.0775 156.8 21.6  .22  61
2018 10 15 08  02 35 52.484   +22 45 32.66  .08700 1.0778 156.9 21.6  .22  61
2018 10 15 09  02 35 43.999   +22 45 10.34  .08726 1.0780 156.9 21.6  .23  62
2018 10 15 10  02 35 35.558   +22 44 48.07  .08751 1.0783 157.0 21.6  .23  62
2018 10 15 11  02 35 27.161   +22 44 25.85  .08777 1.0786 157.1 21.6  .23  62
2018 10 15 12  02 35 18.809   +22 44 03.67  .08803 1.0788 157.1 21.6  .23  63
2018 10 15 13  02 35 10.500   +22 43 41.54  .08828 1.0791 157.2 21.6  .24  63